Regional Weather Roundup
Issued by NWS Wakefield, VA

Home | Current Version | Previous Version | Graphics & Text | Print | Product List | Glossary On
Versions: 1 2 3 4 5 6 7 8 9 10 11 12 13 14 15 16 17 18 19 20 21 22 23 24 25 26 27 28 29
000
ASUS41 KAKQ 260415
RWRAKQ

REGIONAL WEATHER ROUNDUP
NATIONAL WEATHER SERVICE WAKEFIELD VA
1200 AM EDT THU APR 26 2018

Note: "fair" indicates few or no clouds below 12,000 feet with no
significant weather and/or obstructions to visibility. * = Denotes
station may not report precipitation (e.g., rain,snow,etc.),
thunder or fog.

VAZ042-051-052>054-056-260500-
NORTHERN VIRGINIA

CITY           SKY/WX    TMP DP  RH WIND       PRES   REMARKS
WASH NATIONAL  FAIR      62  52  69 NW13      29.75R
DULLES         MOCLDY    57  52  83 NW5       29.76R
FORT BELVOIR   FAIR      54  54 100 CALM      29.74S FOG
QUANTICO       FAIR      58  56  93 W5        29.76R
FREDERICKSBRG* FAIR      62  53  72 NW6       29.75R
STAFFORD*      FAIR      56  55  94 NW9       29.79S
WARRENTON      FAIR      58  48  70 NW6       29.76S
CULPEPER*      CLOUDY    62  48  60 N6        29.78R
MANASSAS*      FAIR      57  52  83 NW9       29.76S
LEESBURG*      CLOUDY    59  52  77 NW13G20   29.77S
WINCHESTER     CLOUDY    55  46  71 NW8       29.81S
FRONT ROYAL*   CLOUDY    59  46  63 NW9G17    29.79R
LURAY*         CLOUDY    59  46  63 NW12      29.80R
$$

VAZ048-049-060>072-079>083-260500-
CENTRAL AND SOUTH CENTRAL VIRGINIA

CITY           SKY/WX    TMP DP  RH WIND       PRES   REMARKS
RICHMOND       FAIR      57  57 100 CALM      29.76R
CHESTERFIELD*  FOG       56  56 100 CALM      29.76S VSB 1/4
PETERSBURG*    FAIR      52  51  93 CALM      29.77R FOG
HANOVER        CLOUDY    57  56  96 CALM      29.77R
TAPPAHANNOCK*  FAIR      56  56 100 W5        29.75R
QUINTON*       FOG       55  55 100 CALM      29.75R VSB 1/4
CHARLOTTSVILLE FAIR      62  48  60 CALM      29.77S
GORDONSVILLE*  CLOUDY    64  50  61 CALM      29.76S
ORANGE*        MOCLDY    61  48  63 CALM      29.77R
LOUISA*        FAIR      54  53  98 CALM      29.80R FOG
BUMPASS*       NOT AVBL
FARMVILLE*     FAIR     N/A N/A N/A CALM      29.76S
CREWE*         CLOUDY    54  54 100 CALM      29.77S
FORT PICKETT*  FAIR      55  55 100 CALM      29.77S
CHASE CITY*    FAIR      55  55 100 CALM      29.79S
CLARKSVILLE*   FAIR      55  55 100 W3        29.79S
SOUTH HILL*    FAIR      55  55 100 SW3       29.83S
LAWRENCEVILLE* FAIR      55  54  97 CALM      29.77S
EMPORIA*       MOCLDY    55  55 100 CALM      29.79R
$$

VAZ088>098-260500-
SOUTHEAST VIRGINIA

CITY           SKY/WX    TMP DP  RH WIND       PRES   REMARKS
NORFOLK        FAIR      61  59  93 W5        29.74R
VIRGINIA BEACH FAIR      59  58  96 W6        29.73S
NORFOLK NAVAL  MOCLDY    60  57  89 W5        29.75S
WEST POINT*      N/A     53  53  97 CALM      29.75S VSB 1/2
SALUDA*        FAIR      57  57 100 CALM      29.73S
NEWPORT NEWS   FOG       56  54  93 SW5       29.75R VSB 3/4
LANGLEY AFB    NOT AVBL
FORT EUSTIS    DRIZZLE   57  57 100 CALM      29.72S
WILLIAMSBURG*  FAIR      59  57  94 CALM      29.75S
HR EXEC AP*    LGT RAIN  54  54 100 CALM      29.76R VSB 1
FRANKLIN*      MOCLDY    57  56  97 CALM      29.77R FOG
US460-WAKEFLD  FAIR      59  59 100 CALM      29.76R FOG
$$

VAZ020-022-025-037-045-260500-
WEST CENTRAL AND SOUTHWEST VIRGINIA

CITY           SKY/WX    TMP DP  RH WIND       PRES   REMARKS
STAUNTON*      CLOUDY    57  47  71 NW5       29.82F
WAYNESBORO*    MOCLDY    56  47  71 W8        29.80S
HOT SPRINGS VA CLOUDY    48  46  94 NW9       29.86R
LYNCHBURG      FAIR      53  49  86 SW5       29.82R
DANVILLE       FAIR      56  54  93 W6        29.82S
SOUTH BOSTON*  FAIR      57  53  88 W5        29.80S
MARTINSVILLE   FAIR      50  48  93 NW5       29.86F
ROANOKE        CLOUDY    58  49  72 NW6       29.86R
BLACKSBURG     CLOUDY    54  50  89 W3        29.89S
DUBLIN*        CLOUDY    54  49  81 N6        29.89F
MARION*        CLOUDY    53  50  91 CALM      29.92S
HILLSVILLE*    CLOUDY    52  48  87 NW10      29.87S
RICHLANDS*     CLOUDY    49  26  42 NW6       29.92F
WISE*          CLOUDY    50  50 100 N5        29.94F
ABINGDON*      CLOUDY    55  50  84 N8        29.92S
$$

MDZ021>025-VAZ099-100-260500-
SOUTHERN MARYLAND AND THE DELMARVA PENINSULA

CITY           SKY/WX    TMP DP  RH WIND       PRES   REMARKS
PATUXENT RIVER FAIR      59  57  93 W7        29.72S
BAY BRIDGE APT MOCLDY    59  57  94 W8        29.72R
LEONARDTOWN    FAIR      55  55 100 W3        29.74S
DOVER          CLOUDY    61  58  89 W8        29.67S
GEORGETOWN     CLOUDY    62  59  90 NW5       29.68S
EASTON         NOT AVBL
CAMBRIDGE      MOCLDY    59  57  94 W5        29.71S
SALISBURY      CLOUDY    61  60  97 W7        29.69R
TANGIER        FAIR      57  57 100 W6        29.72R
OCEAN CITY     LGT RAIN  61  61 100 NW7       29.67F
WALLOPS ISLAND MOCLDY    61  60  97 NW9       29.69S
ACCOMACK*      CLOUDY    60  58  94 NW10      29.72S
$$

NCZ012>017-030>032-260500-
NORTH CENTRAL AND EASTERN NORTH CAROLINA

CITY           SKY/WX    TMP DP  RH WIND       PRES   REMARKS
ROANOKE RAPIDS FAIR      54  54 100 CALM      29.78S
RALEIGH        FAIR      55  55 100 CALM      29.82S
ELIZABETH CITY FAIR      60  60 100 SW7       29.76R
AHOSKIE*       CLOUDY    58  58 100 CALM      29.78S FOG
EDENTON*       FAIR      63  60  91 W6        29.78S
CURRITUCK*     NOT AVBL
KILL DEVIL HLS FAIR      60  60 100 CALM      29.75R
MANTEO         NOT AVBL
CAPE HATTERAS  FAIR      65  62  90 W6        29.77R
TARBORO*       NOT AVBL
GOLDSBORO      FAIR      58  56  92 SW3       29.80R
WASHINGTON     FAIR      59  57  94 CALM      29.80R
GREENVILLE     FAIR      57  57 100 CALM      29.82S
NEW BERN       FAIR      58  57  97 CALM      29.81S
WILMINGTON     FAIR      58  56  93 CALM      29.83R
$$

VAZ048-260500-
ELSEWHERE

CITY           SKY/WX    TMP DP  RH WIND       PRES   REMARKS
HARRISBURG PA  MOCLDY    58  50  75 NW10      29.71S
BALTIMORE      FAIR      56  56 100 W7        29.72S
ANNAPOLIS      MOCLDY    61  57  87 CALM      29.71S
ANDREWS AFB    FAIR      58  56  94 W8        29.73R
PHILADELPHIA   CLOUDY    61  57  87 NW6       29.66F
HENDERSON NC   FAIR      56  50  81 W5        29.80S
GREENSBORO     FAIR      59  50  72 N6        29.82F
ROCKY MOUNT    FAIR      55  55 100 S3        29.80S
$$

VAZ100-260500-
MARINE

STATION/POSITION TIME  TEMP    WIND        PRES    WAVE   SWELL
                       AIR SEA DIR/SP/G            HT/PER HT/PER
                 (UTC) (F)     (DEG/KT/KT) (MB)    (FT/S) (FT/S)
BRANDYWINE LGT   0342   58     310/ 12/ 13 1004.9F
CAPE MAY NJ      0348   55 52  300/  8/ 11 1003.9F
LEWES DE         0342   60 53  300/ 10/ 12 1004.6F
15NM E FENWICK I 0350   47 49  260/  8/ 10 1004.8F   8/10   8/10
OCEAN-CITY-INLET 0342   61 53  320/  9/ 11 1005.0F
WACHAPREAGUE VA  0342   60 62  290/  3/  8 1005.9F
THOMAS POINT MD  0400   60 54  270/  8/  8 1007.2S
GOOSES REEF MD   0400   57     280/  8/ 10 1006.8
COVE POINT MD    0342   60     320/  8/ 15 1006.9S
SOLOMONS ISLAND  0342   58 54  300/  4/  5 1006.2F
BISHOPS HEAD MD  0342   59 60  290/  6/  8 1006.5F
PINEY POINT MD   0342          340/  8/  9   N/A
POTOMAC MD       0400   56 55  310/  6/  8 1007.7    1
CAMBRIDGE MD     0342   59 57              1007.0R
LEWISETTA VA     0342   60 55  300/  6/  7 1006.5F
RAPPAHANNOCK LGT 0342          280/ 11/ 11 1007.2R
YORK RVR RNG VA  0342   58     290/  7/  7 1007.3S
YORKTOWN VA      0342   60 57  270/  5/  6 1006.5F
DOMINION TERM VA 0342   60     300/  4/  4 1007.3S
KIPTOPEKE VA     0342      57  300/  9/ 10   N/A
CAPE HENRY VA    0342   60     260/  9/ 13   N/A
WILLOUBY STN VA  0342   60     290/  6/  6 1007.0F
S CRANEY ISL VA  0342   61     270/  4/  6 1006.9S
CAPE HENRY BUOY  0400      55                N/A     4/10   2/11
1ST LANDING BUOY 0400   59 56  290/  8/  8 1007.8    1/ 9
64NM E OF VA BCH 0350   53 51  240/  8/ 10 1006.8F   8/ 9   8/ 9
DUCK PIER NC     0342   62 52  270/  8/  9 1007.1R
44100 DUCK FRF   0315      55                N/A     7/10   2/11
44056 DUCK FRF   0400      53                N/A     5/ 9   2/11
OREGON INLET NC  0342   62 60  230/  4/  5 1007.4R
HATTERAS NC      0342   65 67  270/  9/ 11 1007.9R
DIAMOND SHLS NC  0400   68 70  260/ 16/ 19 1008.4
CAPE LOOKOUT NC  0400          250/  6/  8 1009.5S
$$




USA.gov is the U.S. government's official web portal to all federal, state and local government web resources and services.